This is the latest recevied weather packets stored in our database for station/object KC2G. If no packets are shown the sender has not sent any weather packets the latest 10 day(s).
| Time | Temp. | Humidity | Pressure | Rain* | Wind** | Luminosity | Snow |
|---|---|---|---|---|---|---|---|
| 1777764655 | 12.22° C | 43% | 1010 hPa | 0 mm | 0 m/s | - | - |
| 1777763754 | 12.78° C | 42% | 1009.9 hPa | 0 mm | 0 m/s | - | - |
| 1777762856 | 13.33° C | 39% | 1009.7 hPa | 0 mm | 0 m/s | - | - |
| 1777761985 | 13.89° C | 38% | 1009.5 hPa | 0 mm | 0.45 m/s, 279° | - | - |
| 1777761954 | 13.89° C | 38% | 1009.5 hPa | 0 mm | 0.45 m/s, 279° | - | - |
| 1777761055 | 14.44° C | 35% | 1009.4 hPa | 0 mm | 0.45 m/s, 284° | - | - |
| 1777760155 | 13.89° C | 37% | 1009.4 hPa | 0 mm | 0.45 m/s, 276° | - | - |
| 1777759255 | 14.44° C | 39% | 1009.3 hPa | 0 mm | 0 m/s | - | - |
| 1777758555 | 14.44° C | 35% | 1009.2 hPa | 0 mm | 0.89 m/s, 313° | - | - |
| 1777758355 | 14.44° C | 35% | 1009.2 hPa | 0 mm | 0.89 m/s, 313° | - | - |
| 1777757654 | 14.44° C | 38% | 1009.1 hPa | 0 mm | 0.45 m/s, 324° | - | - |
| 1777757455 | 14.44° C | 38% | 1009.1 hPa | 0 mm | 0.45 m/s, 324° | - | - |
| 1777756746 | 14.44° C | 38% | 1009.1 hPa | 0 mm | 0.45 m/s, 344° | - | - |
| 1777756554 | 14.44° C | 38% | 1009.1 hPa | 0 mm | 0.45 m/s, 344° | - | - |
| 1777755655 | 14.44° C | 34% | 1009 hPa | 0 mm | 0.45 m/s, 285° | - | - |
| 1777754754 | 15° C | 36% | 1009.1 hPa | 0 mm | 0.45 m/s, 311° | - | - |
| 1777753855 | 14.44° C | 37% | 1009.2 hPa | 0 mm | 0.45 m/s, 294° | - | - |
| 1777752955 | 14.44° C | 37% | 1009.3 hPa | 0 mm | 0 m/s | - | - |
| 1777752056 | 15° C | 38% | 1009.4 hPa | 0 mm | 0.89 m/s, 327° | - | - |
| 1777751155 | 15° C | 35% | 1009.5 hPa | 0 mm | 0.45 m/s, 245° | - | - |
| 1777750255 | 15° C | 36% | 1009.7 hPa | 0 mm | 0.89 m/s, 322° | - | - |
| 1777749354 | 15.56° C | 37% | 1009.9 hPa | 0 mm | 0.45 m/s, 120° | - | - |
| 1777748455 | 15° C | 37% | 1010.1 hPa | 0 mm | 0.89 m/s, 237° | - | - |
| 1777747554 | 15° C | 41% | 1010.2 hPa | 0 mm | 0.45 m/s, 17° | - | - |
| 1777746655 | 14.44° C | 41% | 1010.4 hPa | 0 mm | 0.45 m/s, 325° | - | - |
* Rain latest hour (hover to see other rain measurements)
** Current wind speed in m/s (hover to see current wind gust speed)